Location: Newark
(49.2191°N, 12.6671°E)
Time: 02:02:34
(UTC+00:00)

Transit 2A - Pass Details

Date: 01 February 2020
Orbit: 599 x 959 km, 66.7° (Epoch: 25 February)

Event Time Altitude Azimuth Distance (km) Brightness Sun altitude
Rises 19:01:38 0° 252° (WSW) 2,852 9.9 -28.9°
Reaches altitude 10° 19:04:13 10° 266° (W) 1,943 9.0 -29.3°
Maximum altitude 19:07:47 25° 322° (NW) 1,247 7.5 -29.9°
Enters shadow 19:08:09 24° 330° (NNW) 1,258 7.4 -29.9°
